FW8888 Weather Reports


time (UTC)temp
C
wind
direction
speed
KPH
gust
KPH
rain 1hr
cm
rain 24hr
cm
rain mn
cm
humidity
%
barometer
mb
20260510183055 26 0 0.0 3.2 0.00 0.00 0.00 42 1015.2
20260510181552 26 158 0.0 3.2 0.00 0.00 0.00 39 1015.3
20260510180049 26 0 0.0 3.2 0.00 0.00 0.00 39 1015.3
20260510174559 26 8 0.0 4.8 0.00 0.00 0.00 41 1015.3
20260510173105 26 0 0.0 3.2 0.00 0.00 0.00 41 1015.1
20260510171559 26 220 1.6 6.4 0.00 0.00 0.00 40 1015.3
20260510170107 26 238 0.0 3.2 0.00 0.00 0.00 42 1015.3
20260510164559 26 0 0.0 3.2 0.00 0.00 0.00 40 1015.5
20260510163055 26 0 0.0 4.8 0.00 0.00 0.00 38 1015.6
20260510161555 26 0 0.0 4.8 0.00 0.00 0.00 40 1015.7
20260510160055 26 299 1.6 4.8 0.00 0.00 0.00 47 1015.8
20260510154556 26 303 0.0 3.2 0.00 0.00 0.00 49 1016.1
20260510153051 25 0 0.0 4.8 0.00 0.00 0.00 52 1016.0
20260510151552 24 240 0.0 3.2 0.00 0.00 0.00 56 1015.8
20260510150051 23 0 0.0 4.8 0.00 0.00 0.00 61 1015.6
20260510144552 23 0 0.0 3.2 0.00 0.00 0.00 63 1015.8
20260510143052 23 0 0.0 1.6 0.00 0.00 0.00 65 1015.6
20260510141601 23 0 0.0 1.6 0.00 0.00 0.00 65 1015.7
20260510140055 23 0 0.0 1.6 0.00 0.00 0.00 67 1015.7
20260510134604 22 0 0.0 6.4 0.00 0.00 0.00 69 1015.7
20260510133107 21 64 0.0 6.4 0.00 0.00 0.00 73 1015.5
20260510131601 20 0 0.0 4.8 0.00 0.00 0.00 77 1015.6
20260510130052 18 0 0.0 1.6 0.00 0.00 0.00 87 1015.2
20260510124557 17 0 0.0 1.6 0.00 0.00 0.00 92 1015.1
20260510123102 17 0 0.0 1.6 0.00 0.00 0.00 94 1015.1
20260510121558 16 0 0.0 0.0 0.00 0.00 0.00 97 1015.0
20260510120052 16 0 0.0 1.6 0.00 0.00 0.00 98 1014.9
20260510114551 16 0 0.0 0.0 0.00 0.00 0.00 98 1014.9
20260510113053 15 0 0.0 0.0 0.00 0.00 0.00 98 1014.5
20260510111559 15 0 0.0 0.0 0.00 0.00 0.00 97 1014.4
20260510110049 15 0 0.0 0.0 0.00 0.00 0.00 97 1014.3
20260510104554 15 0 0.0 1.6 0.00 0.00 0.00 97 1014.1
20260510103050 15 0 0.0 1.6 0.00 0.00 0.00 98 1013.8
20260510101552 15 0 0.0 0.0 0.00 0.00 0.00 97 1013.6
20260510100055 15 0 0.0 0.0 0.00 0.00 0.00 97 1013.3
20260510094553 15 0 0.0 0.0 0.00 0.00 0.00 97 1013.1
20260510093051 15 0 0.0 0.0 0.00 0.00 0.00 97 1012.9
20260510091558 15 0 0.0 0.0 0.00 0.00 0.00 97 1012.9
20260510090059 15 0 0.0 0.0 0.00 0.00 0.00 97 1012.7
20260510084559 15 0 0.0 0.0 0.00 0.00 0.00 97 1012.5
20260510083100 15 0 0.0 0.0 0.00 0.00 0.00 97 1012.4
20260510081602 15 0 0.0 0.0 0.00 0.00 0.00 97 1012.4
20260510080054 15 0 0.0 0.0 0.00 0.00 0.00 97 1012.4
20260510074557 15 0 0.0 0.0 0.00 0.00 0.00 96 1012.4
20260510073112 15 0 0.0 0.0 0.00 0.00 0.00 96 1012.1
20260510071559 15 0 0.0 0.0 0.00 0.00 0.00 96 1012.2
20260510070054 15 0 0.0 0.0 0.00 0.00 0.00 96 1012.4
20260510064600 15 0 0.0 0.0 0.00 0.00 0.00 96 1012.3
20260510063058 15 0 0.0 0.0 0.00 0.00 0.00 96 1012.3
20260510061550 15 0 0.0 0.0 0.00 0.00 0.00 96 1012.1
20260510060055 16 0 0.0 0.0 0.00 0.00 0.00 96 1012.3
20260510054554 16 0 0.0 0.0 0.00 0.00 0.00 96 1012.4
20260510053053 16 0 0.0 0.0 0.00 0.00 0.00 96 1012.6
20260510051557 16 0 0.0 0.0 0.00 0.00 0.00 96 1012.7
20260510050052 16 0 0.0 0.0 0.00 0.00 0.00 95 1012.6
20260510044558 16 0 0.0 0.0 0.00 0.00 0.00 95 1012.8
20260510043107 16 0 0.0 0.0 0.00 0.00 0.00 95 1012.8
20260510041555 16 0 0.0 0.0 0.00 0.00 0.00 95 1012.7
20260510040053 16 0 0.0 0.0 0.00 0.00 0.00 94 1012.8
20260510034551 16 0 0.0 0.0 0.00 0.00 0.00 94 1012.7
20260510033054 16 0 0.0 0.0 0.00 0.00 0.00 94 1012.5
20260510031556 16 0 0.0 0.0 0.00 0.00 0.00 94 1012.4
20260510030051 16 0 0.0 0.0 0.00 0.00 0.00 93 1012.3
20260510024551 16 0 0.0 0.0 0.00 0.00 0.00 93 1012.4
20260510023050 16 0 0.0 0.0 0.00 0.00 0.00 92 1012.4
20260510021554 16 0 0.0 0.0 0.00 0.00 0.00 92 1012.5
20260510020051 16 0 0.0 0.0 0.00 0.00 0.00 92 1012.4
20260510014550 17 0 0.0 0.0 0.00 0.00 0.00 91 1012.2
20260510013051 17 0 0.0 0.0 0.00 0.00 0.00 90 1011.8
20260510011551 17 0 0.0 0.0 0.00 0.00 0.00 88 1011.6
20260510010048 18 0 0.0 0.0 0.00 0.00 0.00 86 1011.6
20260510004552 18 0 0.0 0.0 0.00 0.00 0.00 85 1011.5
20260510003057 19 0 0.0 0.0 0.00 0.00 0.00 82 1011.4
20260510001554 20 0 0.0 0.0 0.00 0.00 0.00 80 1011.5
20260510000055 20 0 0.0 1.6 0.00 0.00 0.00 79 1011.1
20260509234552 21 217 0.0 1.6 0.00 0.00 0.00 78 1011.2
20260509233055 21 0 0.0 0.0 0.00 0.00 0.00 76 1010.8
20260509231554 21 0 0.0 3.2 0.00 0.00 0.00 75 1010.7
20260509230056 21 0 1.6 4.8 0.00 0.00 0.00 75 1010.8
20260509224600 22 226 0.0 3.2 0.00 0.00 0.00 74 1010.4
20260509223050 22 0 0.0 4.8 0.00 0.00 0.00 74 1010.6
20260509221600 22 219 0.0 3.2 0.00 0.00 0.00 73 1010.8
20260509220049 22 0 0.0 1.6 0.00 0.00 0.00 75 1010.8
20260509214554 22 233 1.6 4.8 0.00 0.00 0.00 73 1010.6
20260509213049 22 231 1.6 8.0 0.00 0.00 0.00 73 1010.5
20260509211555 22 207 1.6 4.8 0.00 0.00 0.00 72 1010.4
20260509210107 21 0 1.6 4.8 0.00 0.00 0.00 72 1010.3
20260509204551 21 229 0.0 6.4 0.00 0.00 0.00 72 1010.6
20260509203052 21 0 0.0 4.8 0.00 0.00 0.00 71 1010.4
20260509201558 21 233 1.6 6.4 0.00 0.00 0.00 72 1010.6
20260509194550 21 238 1.6 4.8 0.00 0.00 0.00 71 1011.1
20260509193052 21 211 3.2 8.0 0.00 0.00 0.00 69 1011.2
20260509191551 22 207 1.6 4.8 0.00 0.00 0.00 66 1011.1
20260509190106 22 238 1.6 9.7 0.00 0.00 0.00 64 1011.0
20260509184551 22 227 1.6 9.7 0.00 0.00 0.00 64 1011.0